Temp
56 56 56 56 56 56 56 56 56 56 57 57 57 57 58 58 58 63 80 81 76 76 82 84 84 79 83 82 77 80 81 83 81 74 74 71 71 75 74 75 73 72 69 71 72 68 61 85 84 74 78 83 85 86
55 55 55 56 56 56 56 56 56 56 56 57 57 57 57 57 57 58 77 85 82 73 80 86 86 88 87 87 83 84 81 78 75 77 78 77 73 76 73 67 79 70 76 70 71 71 79 86 83 85 85 83 85 85
55 55 55 55 55 55 55 56 56 56 56 57 57 57 56 56 56 58 71 77 78 75 81 85 84 91 93 91 94 78 84 84 82 85 81 79 68 78 71 70 75 79 82 76 75 81 82 84 86 85 86 86 88 88
55 55 55 55 55 55 55 55 56 56 56 56 57 57 56 56 55 56 69 77 75 75 71 84 93 85 92 94 91 90 88 88 87 86 81 79 69 77 75 76 76 62 77 77 77 81 82 84 85 86 86 87 87 88
54 54 54 54 55 55 55 55 55 56 56 56 56 57 56 55 55 59 70 76 79 71 70 76 88 92 93 92 89 88 87 85 82 78 78 76 83 70 81 80 78 83 79 77 73 81 82 82 86 87 85 85 87 86
54 54 54 54 55 55 55 55 55 55 56 56 56 56 55 55 55 65 73 79 82 77 69 71 90 85 87 87 86 84 85 84 82 78 74 83 80 79 74 71 72 81 86 87 82 87 85 87 87 88 86 87 88 87
54 54 54 54 54 55 55 55 55 55 55 55 55 55 55 54 57 64 65 69 60 77 70 70 77 86 86 86 85 85 87 83 81 78 75 80 69 76 75 71 79 74 88 88 89 87 83 86 84 88 88 87 82 87
54 54 54 54 54 54 54 54 54 55 55 55 55 54 54 54 56 64 74 61 65 72 75 68 73 78 87 80 78 87 81 80 79 77 75 75 81 64 62 79 83 84 84 85 87 90 90 90 89 88 89 87 85 83
53 53 54 54 54 54 54 54 54 54 54 54 54 54 63 65 67 72 60 60 71 71 64 73 69 70 86 80 80 74 81 68 76 72 72 75 72 68 69 78 81 83 82 84 88 89 90 87 87 87 87 86 83 83
53 53 53 54 53 54 54 54 54 54 54 54 59 60 64 73 58 62 67 67 67 71 71 67 76 71 82 76 76 75 74 71 59 71 75 66 73 74 79 82 78 84 86 87 83 81 85 85 85 86 86 87 86 85
53 53 53 54 54 54 54 54 54 54 53 59 61 63 71 58 71 70 60 60 65 63 72 74 74 72 83 71 72 67 71 68 63 69 70 67 70 77 77 83 85 87 88 88 88 89 91 90 87 86 86 87 87 87
53 53 53 53 53 54 54 54 54 57 58 54 57 65 73 66 64 58 59 65 61 65 74 72 70 76 81 82 73 72 68 73 61 79 69 66 73 75 80 82 85 87 87 87 87 87 88 89 90 88 88 87 87 87
53 53 53 53 53 53 53 53 53 54 56 62 60 60 60 61 46 56 57 63 65 72 74 74 69 76 76 77 73 70 62 61 73 65 61 71 70 67 75 81 82 86 88 88 87 89 88 86 89 89 87 88 88 87
53 53 52 53 53 53 53 53 54 56 53 50 56 44 57 56 63 66 69 68 71 74 70 72 71 72 76 70 72 61 71 71 63 62 62 67 68 76 78 81 81 82 84 85 85 87 87 86 87 88 88 88 87 85
53 52 53 53 53 53 53 53 54 59 50 49 56 49 60 69 68 73 74 75 77 80 74 67 72 68 70 66 70 68 61 58 65 62 53 54 71 74 75 78 80 81 83 85 86 86 86 86 86 85 87 88 87 86
53 52 53 54 54 53 53 53 54 54 50 51 51 55 67 64 69 69 74 72 77 74 75 73 66 62 63 66 63 62 60 61 64 54 61 69 73 73 74 78 78 81 83 84 84 84 85 84 84 84 86 86 86 85
52 52 55 53 53 53 53 54 53 47 50 55 57 67 67 67 68 66 69 67 79 74 64 69 59 59 66 62 62 67 64 67 68 68 76 74 73 71 75 77 78 80 81 82 83 83 84 84 85 83 80 83 85 83
51 56 53 53 53 52 53 52 53 53 51 60 62 69 71 71 68 67 70 79 74 68 68 64 68 63 62 60 60 65 71 76 75 76 78 76 75 73 78 77 78 79 79 80 80 80 81 82 81 82 82 82 82 83
54 54 53 53 54 52 47 49 50 49 59 66 69 72 71 74 71 73 73 69 76 75 67 64 61 58 58 66 70 70 56 62 74 75 79 77 77 76 76 78 79 78 78 78 79 82 83 82 83 84 86 84 84 85
53 53 53 54 55 50 48 51 62 55 57 64 70 69 71 72 72 73 74 73 73 69 61 61 65 66 68 74 73 74 76 80 79 70 70 79 82 77 77 79 82 79 81 80 80 62 82 82 85 85 86 84 83 82
52 53 53 53 50 49 48 53 57 62 64 64 66 68 69 73 71 68 66 71 64 62 62 70 71 71 78 79 80 78 79 79 77 78 76 61 71 81 82 82 80 83 83 83 80 77 74 81 83 85 85 84 84 86
51 54 50 51 47 49 48 56 59 62 65 64 66 66 64 66 68 71 71 65 67 71 74 73 72 63 70 71 78 79 79 79 80 78 60 67 79 79 79 82 82 81 80 79 82 82 82 84 84 84 85 85 76 86
54 53 50 49 44 43 49 63 55 62 57 62 62 58 61 63 69 77 66 68 70 77 78 78 77 77 76 78 79 79 79 78 79 77 79 82 82 81 83 83 84 82 82 80 83 82 82 60 76 83 85 85 85 83
54 50 45 44 44 43 58 55 60 60 64 61 60 60 64 67 69 64 64 65 69 79 78 75 78 77 78 76 77 80 81 79 81 79 83 83 80 79 82 82 83 81 83 85 81 76 81 80 73 83 84 80 81 79
41 42 43 38 47 46 52 55 58 59 55 60 61 62 60 64 60 60 60 65 73 73 78 77 78 78 74 76 75 70 80 85 81 79 81 82 82 83 80 82 81 71 84 81 84 84 82 84 82 82 81 80 78 73
37 46 42 50 51 52 53 53 57 58 59 58 60 68 69 63 58 58 61 63 64 67 69 74 73 71 76 76 79 77 72 87 84 82 84 87 84 83 81 82 78 71 74 85 86 84 77 79 74 78 78 78 58 81
41 44 55 63 60 56 52 59 60 59 57 59 63 60 60 56 54 58 62 67 67 68 71 73 73 76 78 79 80 84 86 86 82 83 83 87 88 88 87 83 81 84 80 87 89 84 76 81 81 80 85 78 80 83
46 47 48 53 53 56 48 54 55 55 60 65 64 58 53 53 54 60 66 70 70 71 71 74 70 71 75 80 83 83 84 86 86 86 87 87 89 88 88 89 88 58 83 86 87 88 86 87 86 82 82 79 81 81
54 55 52 48 49 49 51 55 59 62 65 65 57 55 58 56 58 63 66 61 60 60 62 70 75 77 75 69 80 85 88 84 77 73 73 76 78 71 65 85 89 88 88 88 54 69 81 81 82 74 78 81 86 84
55 59 54 52 52 55 63 68 65 66 68 63 60 63 60 60 62 68 70 64 60 56 62 70 77 79 77 73 74 78 74 81 77 78 72 74 79 83 85 85 83 85 83 84 84 80 48 69 76 82 83 86 86 85
52 50 49 49 49 55 60 60 63 63 63 61 63 64 60 60 67 71 71 71 71 71 73 73 75 76 74 74 74 73 71 78 80 80 78 80 82 82 83 84 86 87 86 86 85 84 80 77 86 86 84 84 85 80
49 48 47 46 48 54 54 52 53 54 58 60 61 65 64 63 57 62 72 72 72 71 64 69 72 73 73 75 77 75 54 78 78 78 77 77 78 79 80 83 83 86 85 86 85 84 83 84 83 83 78 83 67 65
48 48 48 49 50 51 52 52 54 53 54 56 57 59 63 60 54 63 73 76 73 73 73 74 76 77 77 77 77 75 66 78 70 51 49 47 41 51 67 80 84 85 84 84 86 82 82 85 83 82 82 84 85 85
MSLP
1026.56 1026.19 1025.85 1025.54 1025.17 1024.73 1024.34 1023.91 1023.51 1023.13 1022.75 1022.32 1021.82 1021.33 1020.79 1020.27 1019.67 1018.84 1015.80 1015.70 1015.07 1012.75 1010.74 1010.11 1009.78 1009.45 1008.60 1008.08 1007.07 1006.82 1006.65 1006.10 1005.91 1005.34 1005.04 1004.96 1004.71 1004.19 1004.14 1004.16 1003.79 1003.45 1003.71 1002.77 1002.63 1002.74 1002.98 1003.57 1003.58 1003.77 1004.77 1004.95 1004.85 1004.84
1026.35 1026.06 1025.73 1025.43 1025.07 1024.67 1024.30 1023.89 1023.51 1023.07 1022.70 1022.37 1022.00 1021.56 1021.09 1020.66 1020.12 1019.57 1016.25 1015.44 1015.64 1014.68 1011.39 1010.80 1010.44 1009.88 1009.43 1008.84 1008.14 1007.48 1006.93 1007.04 1006.89 1005.87 1005.62 1005.51 1005.25 1004.71 1004.81 1004.01 1004.39 1004.16 1003.96 1004.50 1004.51 1004.28 1004.66 1004.29 1004.32 1005.01 1005.14 1005.13 1005.16 1005.37
1026.09 1025.79 1025.50 1025.20 1024.87 1024.51 1024.14 1023.78 1023.39 1023.01 1022.61 1022.26 1021.98 1021.67 1021.32 1020.88 1020.48 1020.07 1017.96 1016.40 1015.37 1013.57 1011.04 1009.27 1008.52 1008.38 1008.98 1009.18 1008.92 1008.51 1007.32 1007.08 1007.40 1007.54 1006.62 1006.01 1005.86 1005.27 1004.53 1004.38 1004.16 1004.23 1004.40 1004.13 1004.10 1003.68 1004.29 1004.62 1004.95 1005.34 1005.54 1005.41 1005.65 1006.16
1025.76 1025.44 1025.16 1024.89 1024.60 1024.24 1023.90 1023.55 1023.20 1022.88 1022.47 1022.09 1021.80 1021.58 1021.29 1020.94 1020.54 1020.22 1018.19 1016.62 1016.09 1014.37 1011.62 1008.10 1008.16 1008.46 1008.44 1008.34 1008.51 1008.53 1008.10 1008.11 1007.94 1007.62 1006.74 1006.00 1006.46 1006.80 1004.95 1005.18 1004.85 1006.10 1005.12 1003.97 1003.83 1003.88 1004.41 1004.55 1004.89 1005.36 1005.82 1006.03 1006.23 1006.63
1025.39 1025.11 1024.83 1024.58 1024.29 1023.97 1023.65 1023.32 1023.00 1022.69 1022.33 1021.98 1021.63 1021.37 1021.19 1020.90 1020.49 1019.71 1018.14 1016.76 1016.26 1015.86 1012.36 1009.69 1008.34 1007.40 1007.40 1007.42 1007.84 1008.17 1008.21 1008.01 1007.69 1007.39 1006.66 1006.10 1005.98 1006.97 1005.58 1005.02 1004.05 1004.01 1003.64 1003.61 1003.98 1004.21 1004.09 1004.38 1005.15 1005.61 1006.03 1006.34 1006.62 1006.92
1025.01 1024.73 1024.50 1024.25 1023.91 1023.60 1023.33 1023.04 1022.74 1022.43 1022.12 1021.75 1021.44 1021.17 1020.96 1020.70 1020.36 1018.78 1015.95 1015.89 1016.06 1016.13 1014.19 1010.04 1007.40 1007.32 1007.46 1007.50 1007.60 1007.80 1007.85 1007.84 1008.08 1007.47 1006.96 1006.24 1006.98 1006.90 1005.43 1004.88 1005.62 1004.34 1003.82 1003.45 1003.66 1004.43 1004.30 1004.60 1005.19 1005.67 1005.95 1006.23 1006.63 1006.99
1024.49 1024.27 1024.04 1023.79 1023.54 1023.24 1022.97 1022.72 1022.44 1022.15 1021.86 1021.52 1021.19 1020.92 1020.70 1020.51 1020.18 1018.49 1017.81 1017.23 1017.58 1016.24 1014.24 1010.57 1007.39 1006.74 1007.41 1007.28 1007.28 1007.36 1007.47 1007.68 1007.75 1007.43 1007.15 1006.42 1007.24 1007.49 1005.90 1004.67 1004.68 1004.70 1003.27 1003.51 1004.02 1004.43 1004.48 1004.80 1005.04 1005.68 1005.94 1006.36 1007.12 1007.36
1024.03 1023.77 1023.53 1023.30 1023.07 1022.83 1022.58 1022.34 1022.11 1021.84 1021.54 1021.22 1020.88 1020.59 1020.25 1019.99 1019.75 1018.29 1016.73 1017.07 1017.64 1015.97 1013.76 1010.91 1007.95 1006.86 1006.88 1006.55 1006.46 1006.31 1006.79 1007.54 1007.60 1006.94 1006.98 1006.31 1005.90 1007.16 1006.83 1004.80 1004.15 1004.04 1003.62 1004.44 1003.78 1004.05 1004.07 1003.93 1004.69 1005.36 1005.91 1006.47 1007.02 1007.62
1023.43 1023.20 1022.94 1022.79 1022.62 1022.42 1022.20 1021.93 1021.71 1021.47 1021.21 1020.92 1020.51 1020.09 1019.22 1018.69 1017.31 1016.54 1017.11 1017.34 1017.12 1015.99 1013.25 1009.88 1008.05 1006.22 1006.62 1006.46 1006.01 1006.75 1006.38 1006.38 1006.69 1006.21 1006.39 1006.02 1005.58 1005.64 1005.51 1004.59 1003.89 1003.81 1003.59 1003.51 1003.56 1003.67 1003.80 1004.13 1004.48 1005.21 1005.76 1006.32 1006.85 1007.42
1022.75 1022.60 1022.38 1022.21 1022.13 1021.98 1021.79 1021.54 1021.36 1021.16 1020.88 1020.60 1020.09 1018.87 1016.83 1015.61 1016.95 1017.21 1017.14 1016.11 1015.72 1014.17 1013.06 1010.45 1008.70 1007.27 1006.77 1006.35 1006.01 1006.34 1005.99 1005.91 1005.78 1005.96 1005.52 1005.87 1004.48 1004.67 1004.80 1003.99 1003.66 1003.66 1003.39 1003.49 1003.13 1003.32 1003.61 1003.83 1004.34 1004.87 1005.45 1005.89 1006.54 1007.18
1022.04 1021.97 1021.77 1021.58 1021.57 1021.51 1021.38 1021.23 1021.12 1021.00 1020.66 1019.90 1018.58 1017.04 1016.24 1017.01 1016.44 1015.33 1014.88 1014.07 1012.80 1011.63 1010.31 1009.02 1008.36 1007.46 1006.97 1006.96 1006.29 1007.16 1006.01 1006.07 1005.27 1004.54 1004.77 1004.61 1003.77 1003.12 1003.25 1003.13 1003.03 1002.93 1002.94 1003.06 1003.02 1003.14 1003.07 1003.24 1003.78 1004.49 1005.10 1005.66 1006.18 1006.69
1021.22 1021.19 1021.06 1020.91 1020.90 1020.95 1020.90 1020.87 1020.93 1020.73 1019.73 1019.84 1019.47 1017.70 1016.33 1015.58 1014.78 1013.90 1012.56 1011.40 1011.13 1009.01 1007.96 1007.98 1007.86 1007.70 1007.08 1007.39 1007.29 1006.76 1006.26 1005.79 1005.11 1004.17 1004.20 1003.76 1003.76 1004.09 1003.81 1003.29 1002.50 1002.48 1002.67 1002.68 1002.90 1003.17 1003.48 1003.04 1003.33 1004.19 1004.82 1005.45 1005.94 1006.50
1020.37 1020.34 1020.25 1020.16 1020.20 1020.35 1020.39 1020.45 1020.47 1020.37 1020.12 1019.11 1018.54 1016.51 1015.24 1014.21 1013.47 1011.71 1009.79 1008.81 1008.21 1007.80 1007.69 1007.78 1007.66 1007.49 1007.84 1008.03 1007.39 1006.88 1006.85 1006.25 1005.41 1004.74 1004.51 1003.59 1004.53 1004.78 1004.62 1003.88 1003.23 1002.73 1002.47 1002.49 1002.68 1002.87 1003.35 1003.38 1003.85 1004.41 1004.87 1005.33 1005.89 1006.37
1019.53 1019.47 1019.41 1019.42 1019.53 1019.71 1019.88 1020.04 1020.25 1020.41 1020.45 1018.94 1016.57 1015.45 1013.51 1011.90 1010.18 1008.70 1007.75 1007.17 1007.25 1007.28 1007.58 1007.58 1007.53 1007.49 1007.14 1007.38 1006.95 1006.91 1006.04 1005.52 1005.36 1004.87 1004.68 1005.32 1005.28 1004.72 1004.56 1003.85 1003.34 1002.92 1002.71 1002.59 1002.67 1002.77 1003.21 1003.75 1004.11 1004.57 1004.92 1005.28 1005.77 1006.26
1018.68 1018.66 1018.67 1018.71 1018.78 1019.14 1019.43 1019.80 1020.12 1019.87 1019.62 1018.12 1015.82 1013.45 1010.98 1009.57 1008.83 1007.70 1007.24 1007.05 1007.16 1007.28 1007.45 1007.86 1007.95 1008.15 1007.35 1007.31 1006.70 1006.29 1006.28 1005.78 1005.34 1005.75 1007.02 1007.16 1005.97 1005.46 1004.61 1003.94 1003.47 1002.98 1002.75 1002.46 1002.54 1003.04 1003.38 1003.78 1004.41 1004.76 1004.93 1005.14 1005.62 1006.16
1017.98 1018.01 1017.83 1017.86 1018.11 1018.77 1019.24 1019.73 1020.08 1019.81 1018.89 1017.18 1015.45 1012.57 1009.99 1008.94 1007.75 1007.73 1007.22 1007.10 1007.27 1007.59 1007.72 1007.89 1008.40 1008.41 1007.48 1006.99 1006.35 1006.03 1005.52 1004.94 1005.76 1006.52 1005.82 1006.70 1005.93 1005.41 1004.82 1004.42 1004.13 1003.46 1003.17 1003.06 1003.34 1003.67 1004.00 1004.27 1004.59 1004.93 1005.24 1005.32 1005.66 1006.21
1017.47 1017.13 1016.93 1017.38 1017.97 1018.68 1019.18 1019.27 1019.24 1018.88 1017.45 1014.87 1012.78 1011.05 1009.94 1008.90 1007.73 1007.75 1007.58 1007.73 1007.69 1007.61 1007.70 1008.16 1008.29 1007.76 1007.10 1006.41 1005.71 1005.37 1005.08 1005.34 1004.87 1004.91 1004.57 1005.78 1005.63 1005.40 1005.14 1005.00 1004.72 1004.44 1004.07 1003.87 1003.94 1004.16 1004.18 1004.66 1004.92 1005.27 1005.53 1005.72 1005.88 1006.46
1016.63 1016.47 1016.90 1017.43 1018.05 1018.71 1019.11 1018.88 1017.95 1016.71 1015.04 1013.02 1011.05 1009.30 1008.84 1008.32 1008.40 1008.29 1007.83 1007.86 1007.88 1008.30 1008.41 1008.32 1008.22 1007.37 1006.60 1006.00 1005.98 1006.13 1005.76 1005.23 1004.99 1004.91 1004.85 1005.45 1005.64 1005.70 1005.33 1005.34 1005.33 1005.19 1005.11 1004.98 1005.01 1005.18 1005.19 1005.27 1005.38 1005.36 1005.68 1006.09 1006.15 1006.17
1016.04 1016.32 1016.85 1017.49 1017.74 1018.03 1018.29 1018.13 1017.46 1015.07 1012.69 1011.19 1009.84 1008.89 1007.90 1007.29 1007.81 1008.29 1008.67 1009.16 1008.70 1008.78 1009.04 1008.74 1008.13 1007.74 1007.34 1006.39 1005.85 1006.28 1006.84 1006.62 1005.11 1004.90 1004.94 1005.38 1005.62 1005.69 1005.70 1005.55 1005.50 1005.46 1005.47 1005.46 1005.33 1005.11 1005.04 1005.38 1005.29 1005.09 1005.02 1005.33 1005.50 1005.51
1016.07 1016.46 1016.97 1017.39 1017.80 1017.56 1017.02 1016.20 1015.41 1013.84 1011.44 1009.88 1009.20 1008.21 1007.68 1007.34 1007.50 1007.52 1007.90 1008.66 1008.40 1008.87 1008.60 1008.06 1007.07 1006.56 1006.04 1005.74 1005.90 1005.58 1005.30 1005.08 1004.93 1004.86 1004.78 1004.30 1004.45 1005.19 1005.43 1005.39 1004.82 1005.29 1005.28 1005.46 1005.46 1005.58 1005.31 1005.25 1005.07 1005.14 1005.16 1005.34 1005.28 1005.18
1016.45 1016.70 1017.34 1017.84 1017.99 1017.57 1016.46 1014.66 1013.12 1011.69 1010.40 1009.31 1008.32 1007.71 1007.25 1006.89 1006.68 1007.03 1007.59 1007.72 1008.28 1008.12 1007.52 1006.92 1006.31 1005.91 1005.71 1005.73 1005.71 1005.60 1005.38 1005.54 1005.32 1004.83 1004.46 1005.26 1003.88 1004.30 1004.75 1004.99 1005.19 1004.86 1004.61 1004.29 1004.49 1004.63 1005.09 1004.99 1004.81 1004.75 1004.73 1004.92 1005.11 1004.95
1016.38 1016.88 1017.37 1018.00 1017.77 1017.02 1015.72 1014.03 1011.99 1010.76 1009.60 1008.44 1008.00 1007.53 1006.96 1006.42 1006.10 1006.00 1006.62 1007.12 1006.79 1006.48 1006.35 1006.12 1005.83 1006.27 1006.23 1006.06 1005.51 1005.56 1005.42 1005.56 1005.30 1005.11 1005.00 1004.78 1004.59 1004.31 1004.36 1004.26 1004.08 1004.14 1004.11 1004.04 1004.21 1004.30 1004.42 1004.49 1004.69 1004.68 1004.46 1004.39 1004.81 1004.63
1016.46 1016.66 1017.17 1017.52 1017.44 1016.32 1013.84 1012.22 1011.36 1009.80 1008.61 1007.41 1007.58 1007.32 1006.76 1006.28 1005.71 1005.53 1005.65 1006.13 1005.77 1005.37 1005.11 1005.04 1005.18 1005.49 1005.48 1005.39 1005.32 1005.43 1005.39 1005.30 1004.87 1004.56 1004.31 1004.05 1004.03 1004.08 1003.89 1003.90 1003.93 1003.88 1003.77 1003.79 1003.65 1003.86 1003.80 1004.42 1004.21 1004.44 1004.11 1004.20 1004.27 1004.30
1016.27 1016.40 1016.67 1016.82 1016.51 1014.81 1012.55 1011.03 1010.15 1009.00 1007.63 1006.85 1006.61 1006.20 1005.68 1005.74 1006.05 1005.97 1005.38 1005.16 1004.84 1004.32 1004.29 1004.69 1004.89 1004.86 1004.84 1004.95 1004.77 1004.12 1004.08 1004.18 1004.15 1004.06 1003.79 1003.52 1003.46 1003.42 1003.63 1003.45 1003.24 1003.10 1003.09 1002.98 1003.40 1003.63 1003.45 1003.53 1003.63 1003.79 1003.93 1003.84 1004.01 1004.07
1016.49 1016.41 1016.21 1015.37 1014.63 1013.81 1011.56 1009.71 1008.81 1007.98 1007.27 1006.53 1005.92 1005.53 1005.71 1005.90 1005.79 1005.64 1005.07 1005.09 1004.65 1004.54 1004.27 1004.59 1004.43 1004.06 1003.85 1003.74 1003.66 1003.77 1003.68 1003.06 1003.18 1003.18 1003.12 1003.30 1002.96 1002.88 1002.95 1002.94 1003.02 1003.32 1002.91 1002.76 1002.70 1002.80 1002.69 1002.68 1002.80 1003.05 1003.37 1003.51 1003.38 1003.36
1015.58 1014.89 1014.51 1013.03 1012.37 1011.74 1010.54 1008.95 1007.80 1006.96 1006.50 1006.08 1005.94 1005.70 1005.20 1005.41 1005.63 1005.41 1005.84 1006.28 1006.35 1006.23 1005.86 1005.07 1004.47 1003.94 1003.54 1003.58 1003.14 1003.10 1003.26 1003.18 1003.26 1003.04 1002.65 1002.30 1002.32 1002.20 1002.24 1002.26 1002.34 1002.58 1002.43 1001.92 1001.85 1002.20 1002.71 1002.82 1003.06 1002.79 1002.95 1003.05 1003.24 1003.09
1014.33 1013.47 1012.26 1011.41 1011.18 1011.06 1010.29 1008.60 1007.77 1006.74 1006.19 1005.50 1005.68 1005.96 1005.99 1006.06 1006.13 1006.53 1006.94 1007.05 1006.81 1006.92 1006.59 1006.35 1006.04 1005.05 1004.17 1003.59 1003.39 1003.32 1003.22 1003.44 1003.55 1003.13 1003.09 1002.74 1002.53 1002.24 1001.99 1001.80 1001.73 1002.01 1002.02 1001.45 1001.73 1002.22 1002.46 1002.33 1002.08 1002.02 1001.73 1002.30 1002.56 1002.55
1013.35 1012.63 1011.57 1011.26 1010.98 1010.57 1010.20 1008.52 1007.14 1006.47 1005.61 1005.29 1005.75 1006.21 1007.00 1006.77 1007.38 1007.60 1007.54 1007.74 1007.73 1007.81 1007.29 1006.39 1006.30 1006.04 1005.36 1004.00 1003.71 1003.40 1003.34 1003.20 1003.06 1003.08 1002.67 1002.34 1001.95 1001.59 1001.40 1001.15 1001.54 1002.58 1002.40 1002.36 1002.41 1002.30 1002.32 1002.07 1001.88 1001.92 1001.92 1002.03 1001.90 1001.97
1011.30 1010.91 1011.04 1010.80 1010.67 1010.21 1009.28 1007.49 1006.40 1006.15 1005.97 1005.73 1006.56 1007.24 1007.67 1008.58 1008.89 1008.43 1008.46 1009.00 1008.87 1008.52 1007.81 1006.88 1005.69 1005.18 1005.21 1004.99 1004.20 1003.43 1003.10 1002.81 1002.86 1002.74 1003.00 1002.64 1001.99 1002.17 1001.41 1000.93 1001.01 1001.18 1001.34 1001.55 1002.53 1002.49 1002.83 1003.09 1003.01 1003.24 1002.47 1001.92 1001.32 1001.52
1010.29 1010.52 1010.44 1010.19 1009.59 1008.62 1007.53 1007.21 1006.94 1007.10 1006.81 1006.89 1007.43 1007.89 1008.52 1008.94 1009.12 1008.94 1008.25 1008.63 1008.69 1008.45 1007.82 1007.06 1005.74 1005.12 1004.90 1004.78 1004.79 1004.34 1004.26 1003.83 1004.14 1004.16 1004.15 1003.84 1003.10 1002.64 1002.09 1001.77 1001.66 1001.45 1001.44 1001.41 1001.78 1002.24 1003.02 1003.04 1002.23 1002.54 1002.12 1001.48 1001.02 1000.87
1010.90 1010.83 1010.47 1010.08 1009.58 1009.02 1008.50 1008.45 1008.02 1007.73 1007.39 1007.10 1007.21 1007.31 1008.15 1008.66 1008.60 1008.45 1008.34 1008.13 1007.71 1007.33 1007.24 1006.89 1006.28 1006.02 1006.12 1005.83 1005.46 1005.27 1005.21 1005.03 1004.94 1004.99 1005.51 1004.78 1004.06 1003.54 1002.99 1002.39 1002.01 1001.62 1001.36 1001.36 1001.43 1001.41 1001.55 1001.91 1001.11 1000.80 1000.64 1000.46 1000.22 1000.59
1010.91 1010.54 1010.23 1009.82 1009.24 1008.88 1008.92 1008.63 1008.04 1007.58 1006.84 1006.73 1006.93 1007.48 1007.96 1008.14 1008.73 1009.22 1008.83 1008.47 1007.85 1007.62 1007.58 1007.41 1006.93 1006.70 1007.02 1006.63 1006.23 1006.10 1006.17 1005.69 1005.38 1005.21 1005.19 1005.14 1004.78 1004.43 1004.05 1003.13 1002.28 1001.83 1001.62 1001.32 1001.04 1000.96 1000.81 1000.51 1000.33 1000.10 1000.12 999.95 1001.11 1001.60
1010.53 1010.16 1009.77 1009.44 1008.77 1008.43 1008.31 1008.19 1007.66 1007.42 1007.25 1007.08 1007.29 1007.40 1007.43 1008.17 1009.23 1009.48 1008.90 1008.52 1008.32 1007.94 1007.84 1007.67 1007.34 1006.80 1006.55 1006.38 1006.21 1006.35 1006.46 1006.10 1005.90 1005.80 1005.67 1005.64 1005.55 1005.42 1005.03 1003.86 1002.78 1002.18 1001.83 1001.53 1000.93 1000.54 1000.08 999.98 999.87 999.90 999.78 999.57 999.48 999.51
Wind_Speed
13 14 14 16 15 15 14 15 15 14 14 16 17 18 19 20 17 11 5 5 7 7 12 11 8 10 9 8 9 7 6 10 9 10 9 10 6 7 4 9 11 9 9 9 7 9 1 4 7 3 7 2 2 3
13 14 13 14 15 14 14 14 15 13 13 13 15 17 18 18 18 13 6 3 5 6 10 14 15 16 13 14 11 7 9 5 2 6 2 7 8 5 7 10 5 9 9 1 4 2 3 2 7 6 3 3 3 5
13 13 13 14 14 13 14 15 14 13 13 13 14 15 15 16 16 10 8 6 8 8 12 12 11 9 11 14 14 10 9 3 4 5 8 6 4 7 9 4 9 7 5 6 4 7 5 3 6 3 1 4 5 8
13 14 13 14 14 13 14 14 13 14 14 13 11 14 15 15 14 10 7 8 5 6 7 1 5 5 7 8 11 15 15 5 5 6 8 6 5 8 7 5 9 6 11 7 7 6 3 5 4 7 5 5 5 5
13 13 13 13 14 14 14 13 13 13 14 13 13 10 14 14 15 10 9 8 5 6 8 10 18 15 8 11 13 13 13 12 6 9 8 9 3 3 13 5 10 6 7 4 4 3 5 11 6 10 8 8 6 5
13 13 13 13 13 13 14 13 13 13 13 13 13 9 10 13 14 7 5 5 3 4 6 6 3 6 4 6 11 12 10 9 6 9 5 5 5 10 6 6 15 10 4 5 6 4 1 2 11 9 8 6 6 4
14 14 14 14 14 14 13 13 13 13 12 13 13 10 10 10 6 5 8 5 8 4 6 7 5 7 4 6 9 9 12 5 7 8 10 11 3 8 11 13 11 17 5 8 2 0 5 6 8 10 8 7 4 5
14 14 14 14 15 14 13 13 12 12 11 13 12 11 11 12 13 10 3 13 7 6 5 6 6 6 6 7 9 10 7 6 6 8 9 10 6 4 7 14 16 12 7 8 5 6 10 5 10 12 10 9 9 7
15 15 14 14 14 14 13 13 12 11 10 11 12 15 6 6 5 5 5 9 6 6 6 5 8 3 3 8 2 1 6 6 4 10 12 11 10 10 7 17 13 16 14 12 10 12 8 6 9 12 12 12 9 7
16 16 14 14 15 14 12 11 11 10 9 11 9 4 6 5 14 6 4 6 7 7 7 9 9 10 4 4 4 6 1 8 2 10 1 9 12 11 18 28 4 14 10 12 13 10 9 9 10 13 13 11 10 9
16 15 15 14 14 14 11 10 9 9 9 2 4 1 5 5 5 5 4 5 5 4 6 7 8 8 6 8 6 2 3 3 7 7 13 8 14 10 7 17 15 14 13 13 11 12 11 12 13 13 12 11 11 10
17 17 16 15 14 13 12 9 7 6 1 4 6 7 4 4 5 4 6 7 7 7 6 6 2 5 2 2 5 5 5 2 5 3 5 12 2 13 7 7 10 10 13 16 13 12 11 13 11 9 9 11 10 8
17 16 15 14 13 13 11 9 10 10 11 4 5 5 4 4 4 9 10 6 5 5 5 6 4 3 3 5 6 2 5 7 7 4 6 5 9 6 16 6 5 8 9 10 11 14 10 4 9 9 9 10 9 7
17 16 14 13 12 11 10 9 8 5 2 4 5 5 7 7 8 8 10 1 4 3 4 2 2 4 3 5 4 4 5 4 7 8 7 4 7 8 6 5 6 7 10 12 14 12 13 12 10 8 8 8 11 9
15 13 11 11 11 10 9 9 11 5 3 4 4 6 9 9 6 8 2 2 4 3 3 1 2 2 2 2 4 4 2 6 3 5 4 9 2 3 5 5 6 5 5 8 9 11 13 10 9 8 7 8 8 8
11 7 7 10 11 10 11 11 6 1 3 5 6 7 9 7 9 3 6 4 3 4 4 3 1 2 5 4 5 6 4 3 3 4 9 15 6 8 9 8 6 4 3 7 9 8 8 8 9 9 7 7 8 8
10 4 10 13 13 14 15 5 3 5 5 5 7 10 10 7 6 3 3 1 2 6 4 3 5 6 5 4 4 3 3 4 3 9 8 6 6 7 8 7 7 6 5 5 6 6 7 8 7 7 7 6 7 7
4 5 13 15 13 9 2 3 4 6 8 9 9 8 9 7 3 5 2 0 3 2 3 4 3 6 4 4 2 3 8 11 7 5 5 5 5 5 5 5 5 5 5 6 6 6 5 5 7 7 7 6 6 6
5 8 18 20 7 4 6 5 4 5 8 9 10 11 6 5 2 6 4 1 2 2 2 2 5 2 5 6 8 2 1 8 2 2 4 4 1 1 2 3 1 3 4 3 5 7 7 4 5 4 5 7 8 7
10 17 20 20 5 3 5 5 6 6 5 5 10 10 9 8 7 7 6 4 3 1 4 4 6 6 6 2 2 3 4 3 6 3 4 3 8 5 4 4 3 4 5 5 4 2 5 6 7 7 7 7 7 8
5 8 16 9 1 3 4 3 6 5 6 8 7 10 9 9 9 8 5 4 5 4 5 7 7 5 2 6 4 6 5 5 8 9 5 6 7 5 2 5 5 5 5 5 5 4 4 6 6 4 5 7 8 9
4 9 3 1 2 3 5 5 5 5 6 5 4 6 7 9 10 10 6 7 9 9 9 9 6 2 6 8 8 6 6 5 7 7 5 4 7 5 5 6 5 6 4 3 4 5 5 6 8 8 8 7 5 7
7 2 2 3 2 3 8 4 6 6 5 4 6 4 4 5 6 6 6 8 12 11 9 9 11 9 9 10 7 8 8 8 8 7 6 7 7 6 5 5 6 5 7 6 6 6 4 3 2 5 8 5 6 5
1 2 4 5 6 5 6 5 4 4 6 6 5 4 5 4 3 3 8 7 5 3 5 5 6 8 9 11 11 11 9 8 9 8 8 7 7 4 6 8 7 6 5 6 1 4 4 4 3 7 8 6 6 6
3 3 4 6 6 5 6 5 8 6 6 9 10 4 2 5 5 4 8 3 5 5 2 7 8 7 6 6 5 6 14 6 6 8 4 6 6 5 6 2 4 4 9 4 6 9 7 7 6 6 5 8 7 7
3 6 6 8 6 8 5 5 7 8 4 5 6 2 3 2 4 1 3 3 4 4 6 7 4 5 3 6 5 2 1 2 5 7 8 7 5 6 7 3 5 8 9 11 5 8 5 15 2 7 5 9 7 6
4 5 6 5 2 1 5 7 7 5 6 5 4 3 2 2 1 3 4 5 3 4 4 3 7 8 7 7 6 5 4 4 5 7 5 6 7 8 7 6 5 7 4 8 2 6 6 10 8 7 6 3 6 10
3 4 6 3 4 3 3 7 3 5 5 4 5 4 1 2 3 3 4 5 6 6 6 4 2 5 8 7 6 5 5 6 6 7 8 8 7 9 9 6 6 4 5 7 9 8 10 8 10 6 8 6 6 6
5 3 5 9 6 5 7 6 3 3 5 3 3 2 2 3 2 2 4 4 4 4 5 6 6 0 0 6 6 5 3 4 5 6 11 11 7 1 8 7 4 5 7 8 11 11 7 7 9 7 9 7 8 4
3 2 4 3 5 3 2 3 4 6 4 4 3 4 3 2 2 2 1 4 3 3 6 7 7 6 7 6 5 6 7 7 9 8 7 8 10 11 10 8 7 7 5 5 5 7 2 6 8 7 8 8 8 6
3 2 3 3 3 2 4 4 4 4 3 3 5 6 6 4 3 3 6 5 2 2 5 8 8 7 8 8 8 6 5 7 8 8 8 8 9 9 9 9 7 7 6 7 8 8 6 8 9 11 11 13 12 9
1 2 3 2 3 1 1 2 1 2 3 7 8 9 7 5 4 3 5 6 6 7 5 5 8 8 8 6 5 4 1 8 8 9 12 9 9 9 10 11 10 9 9 11 8 8 8 9 9 7 8 11 15 23
2 2 4 3 4 5 6 4 3 3 4 4 2 3 5 4 5 2 3 5 5 6 8 8 8 7 7 7 7 8 9 10 11 12 9 9 9 8 8 9 9 8 8 8 11 10 7 12 10 10 11 13 11 12
Wind_Direction
325 326 330 332 331 332 334 334 334 335 340 346 347 346 348 349 343 337 326 8 326 309 299 289 282 274 267 235 275 48 251 219 265 265 278 307 299 301 312 275 286 277 230 261 276 266 281 55 161 297 68 191 128 124
315 317 320 321 323 325 326 327 326 331 333 339 346 344 341 345 341 334 277 32 328 266 302 321 289 279 272 279 301 311 292 293 330 271 259 305 237 287 264 286 154 250 277 202 293 46 3 349 67 97 341 111 99 104
310 310 314 316 315 316 317 322 323 326 326 327 338 339 334 339 338 332 311 322 294 262 273 237 242 202 227 238 262 270 260 17 232 338 302 260 279 292 273 301 279 214 244 260 211 137 174 160 112 117 216 108 126 111
304 308 309 309 310 311 314 316 318 321 322 326 322 336 331 332 330 320 300 332 293 285 279 284 107 212 212 235 233 236 264 241 265 270 272 264 296 329 285 293 270 115 285 226 256 190 197 182 201 144 164 138 120 115
298 302 303 302 305 308 309 311 313 316 317 318 320 329 327 325 320 292 266 263 267 286 323 318 304 274 270 255 229 225 234 248 255 262 228 250 322 136 263 293 271 174 210 223 42 10 253 125 160 155 163 170 178 160
295 294 298 301 300 303 305 305 307 308 312 312 316 311 317 319 327 289 211 155 245 234 280 281 10 274 235 242 217 210 220 230 240 251 273 270 227 250 268 270 349 268 186 288 94 330 114 343 155 181 181 182 181 153
290 291 294 293 295 297 300 302 302 302 304 303 305 305 305 307 300 265 345 14 330 289 255 277 277 142 244 226 209 213 213 240 246 241 250 247 226 265 262 264 186 306 202 177 336 262 223 214 177 192 197 185 139 127
289 288 288 291 290 292 295 297 295 297 298 299 305 299 291 286 273 258 207 215 260 271 268 270 271 257 168 232 222 206 199 202 238 249 268 245 227 60 304 254 268 271 248 256 208 237 259 224 197 178 186 164 179 180
282 282 285 288 289 287 289 292 292 297 295 299 302 291 270 219 232 60 101 138 214 293 290 240 274 336 164 249 232 44 262 223 271 216 231 255 254 215 243 276 249 262 276 281 236 248 240 230 183 189 185 188 189 177
283 280 281 283 284 285 285 289 291 293 292 296 272 221 207 78 124 151 176 191 194 207 225 259 284 269 292 285 235 254 210 266 122 254 269 304 250 252 243 252 265 265 238 256 260 237 217 232 204 200 195 193 188 183
280 278 276 275 276 279 281 281 285 294 261 239 242 305 85 145 217 214 214 242 194 243 226 232 246 265 229 257 294 24 239 355 301 217 222 212 240 248 334 276 254 264 258 254 250 245 246 236 211 205 195 208 196 183
276 275 273 271 267 267 268 264 255 243 350 311 296 263 256 217 240 232 222 194 192 243 155 226 169 221 264 327 262 198 280 238 263 354 256 245 61 9 331 304 271 223 231 236 227 236 253 245 182 185 204 206 203 196
274 271 268 264 259 257 255 243 233 271 291 282 221 231 195 209 226 225 202 199 207 183 183 199 179 271 152 233 236 222 241 237 323 245 240 261 117 153 252 296 294 276 254 233 237 231 227 174 164 187 195 200 202 209
273 267 262 257 247 242 238 223 210 188 234 252 205 213 228 196 232 206 248 19 85 199 166 207 204 226 233 178 254 258 257 275 233 247 243 41 2 338 296 297 285 263 246 245 231 205 213 182 187 184 184 193 202 204
269 260 257 243 225 228 207 192 182 187 251 246 249 233 214 243 313 290 321 188 156 240 223 69 350 291 239 279 252 257 230 249 265 281 9 312 5 2 14 6 337 273 240 216 178 180 197 182 198 205 208 206 205 206
261 250 228 188 187 187 169 156 186 194 251 238 228 258 248 285 226 228 204 215 196 213 232 221 99 236 237 209 225 225 225 265 19 21 196 209 36 38 31 33 19 2 129 165 161 165 188 189 203 196 199 209 191 201
214 228 181 169 157 156 160 163 163 212 252 230 236 229 271 275 278 279 122 106 116 249 209 131 224 205 246 249 252 228 281 342 254 241 73 65 51 38 32 38 45 59 68 102 141 179 165 176 180 158 175 168 199 182
214 171 151 147 145 128 176 245 230 225 235 236 252 239 223 236 265 274 348 135 254 264 203 213 270 240 240 267 92 301 347 347 14 7 10 77 68 55 21 47 49 61 77 99 104 108 124 156 175 186 172 197 234 212
174 153 152 155 159 152 178 204 236 257 232 253 231 261 280 237 111 193 178 268 4 7 195 217 230 197 273 298 292 101 308 296 4 306 106 158 152 81 36 356 75 97 97 122 166 191 169 214 301 295 219 201 220 236
142 152 160 169 178 219 210 204 207 245 257 250 236 254 238 238 211 215 173 209 247 206 230 217 237 210 226 144 304 270 320 343 322 331 317 223 160 161 184 288 316 75 219 171 206 254 248 228 232 235 256 272 271 258
143 162 165 160 303 272 280 251 219 253 256 263 247 231 226 235 226 202 212 205 193 199 230 240 267 252 329 343 304 324 306 278 296 308 307 159 263 94 163 196 204 252 247 242 242 165 210 277 293 283 247 221 239 242
97 138 101 97 219 263 256 247 258 307 249 246 250 240 236 228 227 223 190 198 225 248 255 245 255 39 248 227 249 272 313 311 274 278 257 254 274 261 235 249 254 255 269 247 269 287 279 229 221 236 243 257 212 258
145 109 93 116 267 253 263 219 240 217 238 212 164 206 216 234 246 237 208 224 241 228 243 228 238 253 275 283 284 261 253 257 269 274 275 246 242 250 259 261 253 265 276 271 251 247 258 64 148 271 275 205 251 245
318 125 146 183 210 260 273 215 226 255 243 227 206 214 198 152 178 211 231 236 241 207 225 226 249 245 240 235 252 245 231 215 239 252 254 249 252 230 239 257 244 232 239 254 34 255 234 235 187 192 241 241 218 254
105 205 202 219 207 234 252 231 214 214 233 207 228 203 173 174 196 228 214 100 21 356 123 184 225 240 245 223 235 200 207 249 235 253 236 262 268 248 235 277 2 308 307 211 224 243 284 286 191 240 214 239 267 148
217 200 212 206 201 211 225 256 208 221 230 206 192 214 229 201 238 163 79 70 62 27 352 333 322 314 285 332 288 356 131 43 316 285 280 270 259 272 269 259 291 304 227 239 209 262 216 221 39 238 226 259 181 258
234 235 241 220 275 360 286 249 263 243 202 208 164 198 193 250 171 92 87 31 37 22 336 357 322 312 295 312 328 301 286 280 258 291 317 311 299 297 295 284 274 293 176 285 210 256 260 280 289 293 232 214 221 217
260 249 232 141 252 211 259 287 251 207 224 138 163 151 154 283 71 48 60 37 19 1 329 313 253 273 290 297 272 265 236 242 239 245 249 251 267 244 237 208 232 113 304 298 290 296 296 292 296 214 249 263 249 244
232 187 191 219 204 218 224 238 206 76 354 44 58 76 89 45 12 21 60 52 346 346 348 343 328 32 298 338 319 256 252 270 327 7 355 326 313 47 194 282 0 277 241 237 201 235 268 313 327 352 321 275 242 223
248 24 297 286 271 245 331 326 12 8 348 86 119 139 110 104 71 278 163 115 45 351 296 299 314 5 2 43 0 17 346 25 28 356 350 320 336 332 324 324 311 299 288 268 272 173 187 230 235 246 248 254 252 227
360 322 243 218 256 273 320 346 294 275 271 217 220 157 132 141 133 72 34 354 312 232 18 6 2 28 11 4 356 2 358 5 353 344 4 322 326 329 324 317 298 280 290 288 275 275 207 217 235 233 231 235 245 230
276 286 336 277 273 298 196 277 341 290 215 159 134 131 154 143 88 22 9 358 1 4 30 9 344 12 349 340 320 353 292 328 336 355 344 339 335 336 321 309 324 336 322 305 286 266 265 269 272 254 276 256 43 341
234 240 251 237 208 202 205 210 203 201 214 156 93 110 92 69 79 22 339 15 360 6 5 357 341 336 338 333 339 8 351 334 336 304 282 265 280 294 302 292 301 290 283 264 266 281 291 266 252 260 262 278 268 238